Probability
0 0 0 0 0 0 0 0 0 0 0 0 0 0 0 0 0 0 0 0 0 0 0 0 0 1 1 1 1 0 0 0 1 2 2 1 0 0 0 0 1 1 1
0 0 0 0 0 0 0 0 0 0 0 0 0 0 0 0 0 0 0 0 0 0 0 0 1 2 2 2 2 1 1 1 0 1 1 0 0 0 0 1 1 2 2
0 0 0 0 0 0 0 0 0 0 0 0 0 0 0 0 0 0 0 0 0 0 0 0 2 3 3 3 3 3 2 2 1 0 0 0 0 1 1 1 1 1 1
0 0 0 0 0 0 0 0 0 0 0 0 0 0 0 0 0 0 0 0 0 0 0 0 1 2 2 3 3 3 3 3 2 2 1 0 0 0 0 0 0 0 0
0 0 0 0 0 0 0 0 0 0 0 0 0 0 0 0 0 0 0 0 0 0 0 0 0 1 1 1 2 3 3 4 4 4 3 1 1 0 0 0 0 0 0
0 0 0 0 0 0 0 0 0 0 0 0 0 0 0 0 0 0 0 0 0 0 0 0 0 0 0 0 1 1 2 4 5 5 5 3 2 1 0 0 0 0 0
0 0 0 0 0 0 0 0 0 0 0 0 0 0 0 0 0 0 0 0 0 0 0 0 0 0 0 0 0 0 1 2 3 4 4 5 4 3 2 1 0 0 0
0 0 0 0 0 0 0 0 0 0 0 0 0 0 0 0 0 0 0 0 0 0 0 0 0 0 0 0 0 0 0 0 2 3 4 5 4 4 4 2 1 1 0
0 0 0 0 0 0 0 0 0 0 0 0 0 0 0 0 0 0 0 0 0 0 0 0 0 0 0 0 0 0 0 1 2 3 4 5 4 4 4 3 3 2 1
1 0 0 0 0 0 0 0 0 0 0 0 0 0 0 0 0 0 0 0 0 0 0 0 0 0 0 1 1 0 1 1 2 2 3 4 4 4 3 3 3 3 3
1 0 0 0 0 0 0 0 0 0 0 0 0 0 0 0 0 0 0 0 0 0 0 0 0 0 0 1 2 2 2 2 1 1 1 2 3 3 3 3 3 4 4
1 0 0 0 0 0 0 0 0 0 0 0 0 0 0 0 0 0 0 0 0 0 0 0 0 0 0 1 2 2 2 2 1 0 0 1 2 3 3 3 4 5 5
0 0 0 0 0 0 0 0 0 0 0 0 0 0 0 0 0 0 1 1 0 0 0 0 0 0 0 0 1 1 1 1 0 0 0 0 1 2 3 3 3 4 5
0 1 1 0 0 0 0 0 0 0 0 1 0 0 0 0 1 1 2 2 1 1 0 0 0 0 0 0 0 0 0 0 0 0 0 0 0 1 1 2 3 3 4
1 1 2 1 0 0 0 0 0 0 0 1 0 0 0 1 2 3 3 3 3 3 3 2 2 1 1 0 0 0 0 0 0 0 0 0 0 0 0 1 2 2 2
0 1 2 1 0 0 0 0 0 0 0 1 1 1 1 2 3 3 3 4 6 7 6 5 4 4 2 1 1 1 0 0 0 0 0 0 0 0 0 0 1 1 1
1 1 1 1 1 1 1 2 1 1 1 2 3 4 4 5 6 6 5 6 7 8 7 6 5 4 3 3 4 4 2 1 1 0 0 0 0 0 0 0 0 0 0
4 3 2 3 3 4 5 6 6 4 4 6 7 8 8 9 10 10 9 9 9 9 7 5 4 4 4 4 5 6 5 3 2 1 0 0 0 0 0 0 0 0 0
7 6 6 7 8 8 9 10 9 7 7 8 8 9 9 10 11 12 12 13 13 12 10 7 5 4 5 5 5 6 6 5 4 2 1 0 0 0 0 0 0 0 0
10 9 10 11 12 12 12 11 10 8 7 7 7 8 9 10 10 11 14 16 17 17 15 11 8 7 7 7 7 7 6 5 4 2 1 1 0 0 0 0 0 0 0
13 13 13 13 13 12 11 9 7 6 7 6 6 6 7 8 8 9 11 14 17 18 18 15 12 10 10 10 10 8 6 5 3 2 1 1 0 0 0 0 0 0 0
15 14 13 12 11 10 7 4 3 4 6 6 5 5 6 6 6 6 6 7 9 12 15 17 15 12 11 12 12 10 8 7 5 3 1 1 0 0 1 0 0 0 0
14 14 13 11 11 9 4 1 0 2 4 4 4 4 5 5 6 6 5 4 4 5 8 13 14 12 11 11 11 10 9 9 8 5 2 1 0 0 0 0 0 0 0
12 12 12 12 12 9 4 1 0 1 3 3 3 4 4 5 6 6 5 5 5 4 5 7 9 9 9 9 9 9 10 10 9 6 5 4 3 2 1 0 0 0 0
13 12 11 11 11 9 5 1 1 2 4 4 5 5 5 4 4 3 4 5 6 7 6 5 5 5 5 5 6 7 9 11 10 8 7 7 7 7 5 3 2 1 1
15 12 11 10 9 8 5 2 1 3 5 6 7 7 6 4 3 2 2 4 5 7 8 7 4 3 2 2 3 5 9 12 12 9 8 9 10 11 9 6 4 3 1
Wind_Speed
1 1 1 1 1 1 1 1 1 2 2 2 1 1 1 1 1 1 1 1 1 1 1 2 2 2 3 3 3 2 2 2 2 2 2 2 3 4 4 4 5 5 6
1 1 0 1 1 1 1 1 1 1 1 1 1 1 1 1 1 1 1 1 1 0 1 1 1 1 2 3 2 2 2 2 2 2 2 2 3 3 4 4 4 5 6
2 1 1 0 0 1 1 1 1 1 1 2 2 1 1 1 0 0 0 0 1 1 0 1 1 2 2 2 2 2 2 2 2 2 2 2 2 3 3 3 3 3 4
2 2 1 1 0 1 1 1 1 1 1 1 1 1 1 0 0 0 0 0 0 1 1 1 2 3 3 3 3 3 2 2 2 3 3 3 3 3 3 3 3 3 4
2 2 1 1 1 1 1 1 1 1 1 1 0 1 1 0 1 1 1 1 1 1 1 2 2 2 3 3 3 2 2 2 2 3 3 3 3 3 3 3 3 3 4
2 2 1 1 1 1 1 1 1 1 1 0 1 1 1 1 0 1 1 1 1 1 1 2 1 2 2 3 3 2 2 2 2 2 2 3 3 3 3 3 3 4 4
2 2 1 1 2 1 1 1 1 1 1 1 1 2 2 1 0 0 1 1 1 1 1 2 1 1 1 2 3 2 2 2 2 2 2 3 3 4 4 4 4 4 4
2 2 2 2 2 2 1 1 2 1 1 1 2 1 2 3 2 1 0 1 1 1 2 2 1 1 1 1 2 2 2 2 2 2 2 3 3 4 4 5 5 5 5
1 2 2 2 2 2 2 2 2 2 1 0 1 2 2 1 2 2 1 1 1 1 1 2 2 2 2 1 2 2 3 3 3 3 3 2 3 4 5 6 5 5 5
0 1 2 2 2 2 2 2 2 2 2 1 0 0 1 2 1 1 2 2 1 1 2 2 2 2 2 1 2 3 3 3 3 3 3 3 2 2 3 5 6 6 6
0 1 1 2 2 2 2 2 2 2 2 2 1 1 1 1 1 1 2 2 2 2 1 2 1 1 1 2 2 2 3 2 3 3 3 3 3 2 3 3 4 5 6
0 0 1 1 2 2 2 2 2 2 2 2 2 1 2 2 2 2 2 2 2 2 2 1 1 1 1 1 2 2 2 2 2 3 3 3 3 3 3 4 4 4 4
1 1 1 1 1 2 2 2 2 2 2 2 2 2 2 2 2 2 2 1 1 2 2 1 1 1 1 1 1 2 1 1 2 2 3 3 4 4 4 4 4 4 4
2 2 2 2 1 2 2 2 2 2 2 2 2 2 2 2 2 2 3 2 1 1 2 2 1 1 1 1 2 2 2 2 2 2 3 3 4 4 4 3 3 3 3
2 2 2 2 2 2 1 2 2 2 2 2 2 2 2 1 2 2 2 3 3 2 2 2 2 1 1 1 1 1 2 2 2 2 3 3 3 3 3 3 3 3 3
2 2 2 2 2 2 2 2 2 2 2 2 2 2 2 2 1 2 2 2 2 3 3 2 2 2 1 1 1 2 2 2 3 3 3 4 4 3 3 3 4 4 4
3 3 2 2 2 2 2 2 2 2 2 2 2 3 3 2 2 2 2 2 2 2 3 2 2 2 2 2 1 1 2 2 2 4 4 4 4 4 4 4 4 4 5
3 3 3 3 3 3 3 3 4 3 3 3 3 3 3 2 3 2 2 3 3 3 3 3 2 2 2 2 2 2 2 2 3 3 4 4 4 5 5 5 5 5 5
3 3 3 3 4 4 4 4 4 3 3 4 4 4 4 4 4 3 3 3 3 3 3 3 3 2 2 1 2 2 2 2 3 3 4 4 5 5 6 6 6 6 6
4 3 3 3 3 3 3 3 3 3 3 3 4 4 4 5 5 5 4 4 3 3 3 3 3 2 2 2 1 2 2 2 3 3 3 3 4 5 6 6 6 7 7
4 3 3 3 3 3 3 3 3 3 3 3 3 3 4 5 6 5 4 4 4 3 3 3 3 2 2 2 2 2 3 3 3 2 2 3 2 3 3 5 6 7 7
3 3 3 3 3 3 3 4 4 3 2 2 3 3 3 4 5 5 6 5 5 5 4 4 3 4 4 4 2 2 2 2 3 2 2 3 2 3 3 3 5 6 7
3 3 3 3 3 3 4 4 5 3 3 3 3 3 3 3 3 3 4 4 5 6 7 5 5 6 5 4 3 3 3 4 4 2 2 3 2 4 3 4 5 6 6
3 3 3 3 3 4 4 4 4 3 3 3 4 4 4 4 3 3 3 3 4 5 6 5 6 6 5 4 4 4 4 4 3 2 3 3 3 3 4 3 5 6 6
3 3 3 3 4 4 4 4 4 2 3 4 4 4 4 4 4 3 3 4 4 4 4 5 6 6 5 4 3 2 2 2 3 3 2 3 3 3 3 4 4 6 6
3 3 3 3 4 5 5 5 4 2 3 4 3 4 5 5 5 4 4 4 5 5 4 3 3 4 4 4 5 4 4 3 3 3 3 3 2 2 3 3 3 3 4
Wind_Direction
133 73 36 30 25 41 57 63 60 47 42 50 67 95 97 88 55 45 20 20 63 122 156 170 172 170 167 165 169 163 158 158 154 157 164 166 181 190 199 205 206 207 205
152 132 68 29 21 42 48 86 85 62 44 57 50 59 70 78 42 37 22 2 1 82 111 141 170 159 163 159 155 156 155 163 170 180 184 186 193 199 202 201 207 214 211
165 156 141 43 5 81 74 77 61 60 65 66 51 42 46 35 70 46 37 2 343 350 292 206 204 195 186 180 177 178 178 188 193 195 195 199 201 201 193 195 199 206 208
175 160 160 202 155 115 102 92 69 63 49 51 42 16 39 53 149 200 141 218 302 315 310 266 226 214 208 201 201 202 202 204 204 195 196 202 206 191 190 199 202 199 198
179 168 174 184 144 115 103 115 94 112 95 54 44 27 18 22 256 240 218 233 240 259 290 298 273 244 230 224 222 216 218 212 203 202 207 211 208 198 198 204 201 200 203
182 166 165 168 146 125 105 109 123 103 121 101 57 40 6 335 270 266 253 249 250 254 268 289 296 286 260 251 249 240 231 213 200 208 207 211 210 204 204 207 209 214 215
189 168 171 152 148 144 146 133 131 110 79 98 81 26 9 14 357 265 257 251 261 266 267 269 273 278 294 284 262 241 237 219 199 191 197 206 212 207 207 212 216 221 224
185 181 169 167 156 144 131 133 136 122 91 91 118 88 8 353 355 359 319 234 263 274 273 272 267 266 278 286 283 256 254 244 230 211 208 216 219 214 214 218 220 221 225
186 165 173 173 168 162 169 180 167 151 158 100 120 137 134 255 312 332 340 332 309 281 282 284 266 266 259 260 276 275 267 265 248 237 234 235 230 225 221 228 231 230 229
202 178 179 178 170 166 175 202 173 164 156 176 179 119 156 163 164 321 325 328 327 304 297 289 290 275 260 251 253 253 258 265 258 253 253 256 248 246 249 246 239 239 237
264 182 184 178 176 176 185 193 173 172 170 173 177 161 131 103 137 177 284 319 327 301 285 274 283 286 279 260 256 258 255 253 251 252 257 264 267 261 265 274 267 255 249
303 204 176 174 185 185 191 190 183 179 179 172 176 173 164 167 183 181 219 270 297 303 304 287 278 280 277 271 269 271 257 254 253 248 250 256 267 272 276 275 276 280 273
223 239 184 170 189 201 197 183 178 188 185 182 191 202 199 203 180 172 180 224 269 297 311 296 267 268 271 264 278 284 270 254 262 261 258 257 262 269 272 275 276 277 280
216 213 190 181 195 205 197 182 187 205 192 196 204 201 203 215 191 181 179 174 222 292 286 275 283 257 266 259 280 269 281 262 258 263 264 262 261 265 264 268 269 274 280
209 201 191 194 203 202 194 184 200 219 202 206 211 204 211 229 207 203 190 181 177 226 266 263 267 278 267 245 270 245 255 265 249 262 265 261 259 258 257 255 253 256 259
212 193 201 206 209 203 194 193 213 220 206 219 214 204 218 231 222 207 197 200 194 194 235 246 244 279 284 282 250 238 248 256 253 257 260 260 258 253 255 258 255 252 255
201 202 205 207 212 214 208 202 219 214 216 231 227 213 223 217 219 218 199 197 204 198 226 259 249 264 252 276 297 264 253 250 261 254 251 253 252 253 251 251 253 255 255
212 210 204 210 221 219 210 208 221 220 218 228 232 221 232 223 223 220 208 212 214 207 212 245 256 253 248 265 278 271 272 257 260 264 253 252 252 255 253 249 247 249 254
211 207 202 212 222 218 214 216 217 222 224 227 228 226 230 220 233 227 217 219 220 215 211 224 251 250 254 275 287 285 279 274 272 268 258 254 256 257 255 252 246 243 247
210 209 211 216 219 215 215 218 218 223 232 238 239 239 236 227 229 227 224 224 216 211 209 220 244 253 255 264 262 270 283 274 275 280 275 267 265 260 260 257 253 249 246
213 209 206 213 216 213 218 213 218 224 234 252 261 259 249 241 234 229 227 220 208 209 213 223 239 248 248 247 248 243 259 281 269 252 273 274 272 269 268 264 259 257 251
207 201 210 215 225 234 231 214 209 222 232 241 258 270 271 257 249 239 234 222 208 209 216 220 234 242 247 242 242 242 247 268 274 236 242 272 259 267 267 262 264 258 253
199 202 212 218 235 251 239 224 212 205 224 240 247 260 271 274 266 262 251 238 234 232 220 216 230 239 241 232 224 240 238 241 250 254 217 262 259 263 266 264 258 254 254
197 206 215 219 233 253 241 227 212 214 234 247 248 243 248 264 264 248 259 260 257 251 237 229 237 245 247 234 219 228 235 246 258 249 214 253 262 265 275 268 259 253 250
206 212 218 216 226 249 240 225 209 217 239 256 256 245 240 250 259 236 238 260 272 273 253 234 235 248 254 244 216 198 211 228 258 252 210 241 262 272 273 269 261 252 254
218 222 233 228 229 242 241 230 209 214 242 258 262 256 245 248 254 235 228 240 258 270 278 274 255 258 256 248 220 215 217 227 249 255 215 218 251 265 276 267 271 270 264